Flag for Germany Weather past 2 weeks in Ludwigshafen, Rhineland-Palatinate, Germany

Now
63 °F

Fog.


Feels Like: 63 °F
Forecast: 51 / 70 °F
Wind: 1 mph from North

Location: Baden Wurttemberg - Neuostheim

Current Time: Oct 1, 2014 at 10:43:24 AM

Latest Report: Oct 1, 2014 at 9:50 AM


Visibility: 3 mi

Pressure: 30.33 "Hg

Humidity: 88%

Dew point: 59 °F

Location of LudwigshafenLocation

Historic Weather in Ludwigshafen — Graph

°F

Ludwigshafen temperature yesterday

Maximum temperature yesterday: 70 °F (at 12:50 PM)
Minimum temperature yesterday: 61 °F (at 9:20 PM)
Average temperature yesterday: 67 °F

Past Weeks' High & Low Weather Summary

 TemperatureHumidityPressure
High79 °F (Sep 17, 3:20 PM)100% (Sep 17, 5:50 AM)30.36 "Hg (Sep 17, 5:50 AM)
Low41 °F (Sep 23, 6:20 AM)39% (Sep 17, 4:20 PM)29.86 "Hg (Sep 17, 3:20 PM)
Average64 °F73%30.09 "Hg
* Reported Sep 16 9:20 AM — Oct 1 9:50 AM, Ludwigshafen, Weather by CustomWeather, © 2014

Note: Actual official high and low records may vary slightly from our data, if they occured in-between our weather recording intervals... More about our weather records

Advertising

Ludwigshafen weather history for previous 24 hours

 ConditionsComfort  
Time TempWeatherWind HumidityBarometerVisibility
9:50 AM
Oct 1
63 °FFog.1 mph88%30.33 "Hg3 mi
9:20 AM61 °FFog.No wind100%30.33 "Hg3 mi
8:50 AM61 °FFog.1 mph94%30.30 "Hg2 mi
8:20 AM59 °FFog.2 mph100%30.30 "Hg2 mi
7:50 AM59 °FFog.1 mph94%30.30 "Hg2 mi
7:20 AM57 °FFog.No wind100%30.30 "Hg3 mi
6:50 AM59 °FPartly cloudy.No wind94%30.30 "Hg4 mi
6:20 AM59 °FMostly cloudy.1 mph94%30.30 "HgN/A
5:50 AM59 °FPartly cloudy.3 mph94%30.30 "Hg6 mi
9:20 PM
Sep 30
61 °FPassing clouds.2 mph88%30.30 "HgN/A
8:50 PM63 °FPassing clouds.No wind83%30.30 "HgN/A
8:20 PM64 °FPassing clouds.1 mph83%30.30 "HgN/A
7:50 PM64 °FPassing clouds.1 mph83%30.27 "HgN/A
7:20 PM68 °FBroken clouds.2 mph73%30.27 "HgN/A
6:50 PM70 °FMostly cloudy.1 mph69%30.27 "HgN/A
6:20 PM70 °FBroken clouds.3 mph69%30.27 "HgN/A
5:50 PM70 °FMore clouds than sun.1 mph64%30.27 "HgN/A
5:20 PM70 °FPartly sunny.2 mph64%30.27 "HgN/A
4:50 PM70 °FPartly sunny.3 mph69%30.27 "HgN/A
4:20 PM70 °FBroken clouds.2 mph64%30.27 "HgN/A
3:50 PM70 °FBroken clouds.2 mph64%30.27 "HgN/A
3:20 PM70 °FBroken clouds.2 mph64%30.27 "HgN/A
2:50 PM70 °FPartly sunny.1 mph60%30.30 "HgN/A
2:20 PM70 °FBroken clouds.2 mph60%30.30 "HgN/A
1:50 PM70 °FBroken clouds.5 mph64%30.30 "HgN/A
1:20 PM70 °FScattered clouds.7 mph60%30.30 "HgN/A
12:50 PM70 °FBroken clouds.5 mph64%30.30 "HgN/A
12:20 PM68 °FScattered clouds.6 mph69%30.30 "HgN/A
11:50 AM66 °FPartly sunny.5 mph73%30.30 "HgN/A
11:20 AM66 °FScattered clouds.3 mph78%30.30 "HgN/A
10:50 AM64 °FBroken clouds.3 mph83%30.30 "HgN/A
10:20 AM64 °FPartly sunny.5 mph83%30.30 "HgN/A
Weather by CustomWeather, © 2014

See weather overviewHow to use our weather pages